Location: ASU Dark Sky Observatory
(36.2504°N, 81.4125°W)
Time: 02:34:01
(UTC-04:00)

Amateur Radio Satellites - All Passes

Search period start: 02 April 2015 02:04
Search period end: 03 April 2015 02:04
Location: ASU Dark Sky Observatory, 36.2504°N, 81.4125°W

Satellite Date Start Highest point End Downlink Frequencies (MHz)
Time Altitude Azimuth
SWISSCUBE 02 Apr 02:30:42 02:35:29 65° 259° (W) 02:40:17 437.505
BEESAT 02 Apr 02:32:58 02:37:44 67° 259° (W) 02:42:31 436.000
Gurwin Techsat 1B 02 Apr 02:42:32 02:44:51 13° 89° (E) 02:47:30 435.225
YUBILEINY 02 Apr 02:48:50 02:56:34 34° 273° (W) 03:04:00 435.215
RS-15 02 Apr 02:56:44 03:06:39 34° 41° (NE) 03:17:12 29.354- 29.394
O/OREOS (USA 219) 02 Apr 03:02:23 03:05:14 17° 101° (E) 03:08:17 437.305
ITAMSAT 1 02 Apr 03:08:30 03:13:00 30° 96° (E) 03:17:34 435.822/435.867
KKS-1 02 Apr 03:14:57 03:19:18 61° 75° (ENE) 03:23:42 437.445
ITUPSAT 1 02 Apr 03:23:51 03:27:29 20° 267° (W) 03:30:58 437.325
SO-50 02 Apr 03:26:46 03:31:31 44° 55° (NE) 03:36:14 436.795
Oscar 19 02 Apr 03:33:17 03:38:12 44° 288° (WNW) 03:43:06 437.125/150
STARS 02 Apr 03:37:36 03:41:56 69° 76° (ENE) 03:46:19 437.465
PHONESAT 2.4 02 Apr 03:43:57 03:45:22 12° 143° (SE) 03:46:54 2401.200-2431.200
HORYU 2 02 Apr 03:48:55 03:50:09 11° 90° (E) 03:51:43 437.375
VERMONT LUNAR 02 Apr 04:05:52 04:09:03 43° 153° (SSE) 04:12:15 437.305
AIST 1 02 Apr 04:06:40 04:10:47 41° 93° (E) 04:14:56
Gurwin Techsat 1B 02 Apr 04:20:07 04:25:22 65° 286° (WNW) 04:30:37 435.225
ISS 02 Apr 04:30:17 04:33:14 32° 35° (NE) 04:36:12 145.825
AO-7 02 Apr 04:37:52 04:44:52 31° 96° (E) 04:52:05 29.400- 29.500
O/OREOS (USA 219) 02 Apr 04:40:03 04:44:23 39° 295° (WNW) 04:48:42 437.305
ITAMSAT 1 02 Apr 04:48:02 04:52:27 28° 291° (WNW) 04:56:45 435.822/435.867
JAS-2 02 Apr 04:52:16 04:59:00 36° 93° (E) 05:05:14 435.910
KKS-1 02 Apr 04:56:04 04:56:26 10° 271° (W) 04:56:28 437.445
M-CUBED/EXP-1 PRIME 02 Apr 04:56:28 04:59:16 18° 62° (ENE) 05:02:21 437.505
SO-50 02 Apr 05:08:11 05:11:48 20° 249° (WSW) 05:15:14 436.795
RS-15 02 Apr 05:08:43 05:20:18 76° 244° (WSW) 05:32:19 29.354- 29.394
GONETS M04 02 Apr 05:12:48 05:15:52 12° 59° (ENE) 05:19:41
MOZHAYETS 4 02 Apr 05:18:23 05:22:58 72° 76° (ENE) 05:27:37
PHONESAT 2.4 02 Apr 05:19:49 05:23:18 64° 156° (SSE) 05:26:49 2401.200-2431.200
HORYU 2 02 Apr 05:22:49 05:27:16 57° 285° (WNW) 05:31:40 437.375
VERMONT LUNAR 02 Apr 05:43:28 05:46:44 49° 348° (NNW) 05:49:59 437.305
AIST 1 02 Apr 05:46:14 05:48:43 14° 289° (WNW) 05:51:00
AUBIESAT-1 02 Apr 06:01:35 06:05:39 88° 80° (E) 06:10:07 437.475
ISS 02 Apr 06:07:03 06:09:30 20° 230° (SW) 06:11:53 145.825
PRISM 02 Apr 06:23:18 06:26:13 19° 69° (ENE) 06:29:15 437.425
STRAND 1 02 Apr 06:28:40 06:31:59 18° 66° (ENE) 06:35:29 437.568
AO-7 02 Apr 06:30:01 06:38:00 53° 293° (WNW) 06:45:57 29.400- 29.500
M-CUBED/EXP-1 PRIME 02 Apr 06:30:05 06:33:51 36° 259° (W) 06:37:55 437.505
JAS-2 02 Apr 06:37:03 06:44:06 41° 292° (WNW) 06:50:26 435.910
CUSAT 1 02 Apr 06:52:53 06:54:58 13° 73° (ENE) 06:57:39 437.405
PHONESAT 2.4 02 Apr 06:58:21 07:01:45 44° 352° (N) 07:05:09 2401.200-2431.200
GONETS M04 02 Apr 07:05:47 07:14:38 74° 81° (E) 07:23:29
CUBESAT XI-V 02 Apr 07:16:52 07:21:35 82° 258° (WSW) 07:26:19 437.345
VERMONT LUNAR 02 Apr 07:21:34 07:24:44 39° 5° (N) 07:27:54 437.305
RS-15 02 Apr 07:25:09 07:31:23 15° 259° (W) 07:36:33 29.354- 29.394
CUTE-I 02 Apr 07:38:35 07:43:53 67° 101° (E) 07:49:09 437.470
Cubesat XI-IV 02 Apr 07:40:01 07:45:20 70° 101° (E) 07:50:38 437.490
PRISM 02 Apr 07:57:43 08:01:30 31° 263° (W) 08:05:16 437.425
DANDE 02 Apr 08:05:30 08:09:57 48° 80° (E) 08:15:57 436.750
STRAND 1 02 Apr 08:05:51 08:10:50 49° 260° (W) 08:15:50 437.568
CUSAT 1 02 Apr 08:32:54 08:37:49 71° 262° (W) 08:44:23 437.405
PHONESAT 2.4 02 Apr 08:37:02 08:40:26 45° 9° (N) 08:43:51 2401.200-2431.200
BEESAT 3 02 Apr 08:50:39 08:52:57 15° 110° (ESE) 08:55:26 437.485
VERMONT LUNAR 02 Apr 08:59:15 09:02:36 88° 205° (SSW) 09:05:57 437.305
BRITE-PL 02 Apr 09:00:26 09:03:47 22° 95° (E) 09:07:23 437.365/2234.400
GONETS M04 02 Apr 09:04:31 09:10:42 21° 277° (W) 09:16:26
CUTE 1.7 + AOD 2 02 Apr 09:07:42 09:09:34 13° 90° (E) 09:11:41 437.475
CUTE-I 02 Apr 09:20:35 09:23:27 14° 296° (WNW) 09:26:04 437.470
Cubesat XI-IV 02 Apr 09:22:12 09:24:55 14° 296° (WNW) 09:27:21 437.490
GOMX 1 02 Apr 09:25:24 09:29:09 28° 96° (E) 09:33:11 467.674
SEEDS 02 Apr 09:29:37 09:32:42 20° 93° (E) 09:35:54 437.485
HO-68 02 Apr 09:37:18 09:43:57 40° 98° (E) 09:50:38 435.675
CINEMA 3 02 Apr 09:41:08 09:43:26 14° 91° (E) 09:46:01 145.822/145.860
COMPASS 1 02 Apr 09:45:17 09:48:43 24° 95° (E) 09:52:13 437.405
DANDE 02 Apr 09:49:59 09:53:18 17° 265° (W) 09:56:54 436.750
AIST 2 02 Apr 09:54:19 09:57:34 22° 112° (ESE) 10:00:56 435.215
BEESAT 2 02 Apr 09:54:36 09:58:40 72° 118° (ESE) 10:02:49 435.950
DELFI C3 02 Apr 10:05:22 10:06:18 11° 90° (E) 10:07:30 145.870
Oscar 11 02 Apr 10:12:04 10:15:10 19° 93° (E) 10:18:25 145.826/435.025
PHONESAT 2.4 02 Apr 10:15:23 10:18:52 62° 205° (SSW) 10:22:22 2401.200-2431.200
UNISAT 6 02 Apr 10:19:34 10:22:19 17° 68° (ENE) 10:25:15 437.425
BEESAT 3 02 Apr 10:26:50 10:30:42 40° 305° (NW) 10:34:37 437.485
TIGRISAT 02 Apr 10:27:23 10:30:29 21° 69° (ENE) 10:33:45 435.000
CANX-2 02 Apr 10:28:17 10:32:33 59° 284° (WNW) 10:36:46 2200.000
DOVE 4 02 Apr 10:31:10 10:35:38 79° 284° (WNW) 10:40:22 437.250
FUNcube-1 02 Apr 10:31:16 10:34:04 17° 92° (E) 10:37:06 145.935
VERMONT LUNAR 02 Apr 10:37:43 10:39:59 17° 215° (SW) 10:42:12 437.305
BRITE-PL 02 Apr 10:38:41 10:42:21 27° 288° (WNW) 10:46:07 437.365/2234.400
CUTE 1.7 + AOD 2 02 Apr 10:41:40 10:45:49 45° 285° (WNW) 10:49:54 437.475
ZACube-1 02 Apr 10:45:10 10:48:48 25° 95° (E) 10:52:34 437.345
UWE-3 02 Apr 10:45:57 10:49:58 32° 97° (E) 10:54:06 435.000/436.395/437.385
AAUSAT CUBESAT 2 02 Apr 10:49:34 10:53:46 64° 284° (WNW) 10:57:55 437.432
POPSAT HIP 1 02 Apr 10:50:11 10:53:06 19° 69° (ENE) 10:56:07 437.405
NANOSAT C BR1 02 Apr 10:58:30 11:01:48 23° 71° (ENE) 11:05:12 145.865
ANTELSAT 02 Apr 10:58:50 11:02:56 49° 74° (ENE) 11:07:09 437.575/2403.000
CUBEBUG 2 02 Apr 10:59:42 11:04:09 57° 100° (E) 11:08:44 437.445
HUMSAT D 02 Apr 11:02:30 11:05:24 18° 93° (E) 11:08:27 437.325/437.525
GOMX 1 02 Apr 11:03:42 11:07:14 23° 288° (WNW) 11:10:49 467.674
SEEDS 02 Apr 11:04:48 11:08:35 30° 288° (WNW) 11:12:16 437.485
AISAT 02 Apr 11:05:19 11:06:45 12° 90° (E) 11:08:28 437.250
POLYITAN 1 02 Apr 11:06:22 11:10:00 29° 72° (ENE) 11:13:41 437.675
CINEMA 3 02 Apr 11:16:32 11:20:55 48° 285° (WNW) 11:25:26 145.822/145.860
UKube-1 02 Apr 11:19:23 11:23:25 39° 98° (E) 11:27:28 .
COMPASS 1 02 Apr 11:20:53 11:24:22 24° 289° (WNW) 11:27:44 437.405
HO-68 02 Apr 11:25:09 11:31:36 36° 294° (WNW) 11:37:56 435.675
AIST 2 02 Apr 11:32:12 11:36:01 31° 307° (NW) 11:39:50 435.215
DX 1 02 Apr 11:35:14 11:39:32 65° 101° (ESE) 11:43:50 434.975-435.025
BEESAT 2 02 Apr 11:35:48 11:37:22 12° 316° (NW) 11:38:46 435.950
DELFI C3 02 Apr 11:37:52 11:41:50 48° 286° (WNW) 11:45:45 145.870
DUCHIFAT 1 02 Apr 11:39:35 11:43:46 72° 76° (ENE) 11:47:57 145.980
QB50P1 02 Apr 11:40:18 11:44:30 76° 76° (ENE) 11:48:43 145.935-145.965
Oscar 11 02 Apr 11:47:33 11:51:26 31° 288° (WNW) 11:55:15 145.826/435.025
ESTCUBE 1 02 Apr 11:48:05 11:51:11 19° 93° (E) 11:54:24 437.505/2401.250
UNISAT 6 02 Apr 11:54:57 11:58:53 35° 263° (W) 12:02:50 437.425
PHONESAT 2.4 02 Apr 11:55:27 11:56:47 12° 217° (SW) 11:58:01 2401.200-2431.200
QB50P2 02 Apr 11:56:44 12:00:56 66° 259° (W) 12:05:08 145.880/145.840
BUGSAT 1 02 Apr 12:00:24 12:04:33 88° 257° (WSW) 12:08:40 437.445
TIGRISAT 02 Apr 12:03:22 12:07:06 29° 264° (W) 12:10:50 435.000
FUNcube-1 02 Apr 12:06:26 12:10:34 38° 287° (WNW) 12:14:45 145.935
CUBEBUG 1 02 Apr 12:20:07 12:24:08 37° 98° (E) 12:28:09 437.445
ZACube-1 02 Apr 12:21:23 12:25:08 26° 288° (WNW) 12:28:51 437.345
UWE-3 02 Apr 12:22:55 12:26:21 21° 290° (WNW) 12:29:43 435.000/436.395/437.385
POPSAT HIP 1 02 Apr 12:25:03 12:28:49 31° 263° (W) 12:32:32 437.405
VELOX 1 02 Apr 12:32:46 12:37:08 66° 285° (WNW) 12:41:29 145.980
50 SAT 02 Apr 12:32:54 12:36:52 54° 285° (WNW) 12:40:49 437.505
NANOSAT C BR1 02 Apr 12:34:07 12:37:36 24° 265° (W) 12:41:01 145.865
HUMSAT D 02 Apr 12:37:24 12:41:16 33° 287° (WNW) 12:45:06 437.325/437.525
CUBEBUG 2 02 Apr 12:38:24 12:40:28 13° 292° (WNW) 12:42:20 437.445
ANTELSAT 02 Apr 12:38:25 12:40:08 12° 270° (W) 12:41:36 437.575/2403.000
AISAT 02 Apr 12:39:27 12:43:45 53° 286° (WNW) 12:48:02 437.250
JUGNU 02 Apr 12:40:21 12:42:31 12° 169° (S) 12:44:46 437.505
POLYITAN 1 02 Apr 12:42:53 12:45:59 19° 267° (W) 12:48:58 437.675
UKube-1 02 Apr 12:56:32 12:59:18 16° 292° (WNW) 13:01:53 .
Oscar 19 02 Apr 13:09:36 13:13:21 22° 68° (ENE) 13:17:17 437.125/150
O/OREOS (USA 219) 02 Apr 13:13:55 13:17:23 22° 60° (ENE) 13:20:57 437.305
DX 1 02 Apr 13:14:39 13:15:19 10° 295° (WNW) 13:15:43 434.975-435.025
TISAT 1 02 Apr 13:21:19 13:25:14 38° 98° (E) 13:29:10 437.305
ESTCUBE 1 02 Apr 13:24:04 13:28:11 34° 288° (WNW) 13:32:13 437.505/2401.250
SPROUT 02 Apr 13:47:47 13:52:05 81° 281° (W) 13:56:22 437.525
YUBILEINY 02 Apr 13:48:38 13:57:09 59° 91° (E) 14:05:48 435.215
SRMSAT 02 Apr 13:49:26 13:50:08 10° 167° (SSE) 13:50:57 437.500
ITUPSAT 1 02 Apr 13:50:44 13:52:02 11° 89° (E) 13:53:40 437.325
CUBEBUG 1 02 Apr 13:57:26 14:00:15 17° 292° (WNW) 14:02:54 437.445
Gurwin Techsat 1B 02 Apr 14:00:52 14:04:14 18° 66° (ENE) 14:07:48 435.225
ITAMSAT 1 02 Apr 14:23:52 14:28:35 36° 71° (ENE) 14:33:22 435.822/435.867
JUGNU 02 Apr 14:27:17 14:30:47 16° 179° (S) 14:34:17 437.505
SWISSCUBE 02 Apr 14:33:57 14:38:25 39° 98° (E) 14:42:53 437.505
BEESAT 02 Apr 14:36:07 14:40:34 38° 98° (E) 14:45:00 436.000
PCSat 02 Apr 14:36:15 14:41:40 89° 289° (WNW) 14:47:08 145.827
Oscar 19 02 Apr 14:47:42 14:52:29 39° 262° (W) 14:57:16 437.125/150
O/OREOS (USA 219) 02 Apr 14:52:52 14:56:53 31° 256° (WSW) 15:00:48 437.305
TISAT 1 02 Apr 14:58:10 15:00:45 16° 292° (WNW) 15:03:11 437.305
JAS-2 02 Apr 15:03:54 15:06:55 13° 57° (ENE) 15:10:30 435.910
KKS-1 02 Apr 15:10:14 15:12:36 15° 91° (E) 15:15:11 437.445
ITUPSAT 1 02 Apr 15:25:42 15:30:27 63° 285° (WNW) 15:35:10 437.325
STARS 02 Apr 15:31:23 15:33:57 16° 92° (E) 15:36:44 437.465
AO-7 02 Apr 15:34:12 15:41:22 35° 63° (ENE) 15:48:41 29.400- 29.500
SRMSAT 02 Apr 15:35:10 15:38:33 15° 176° (S) 15:41:58 437.500
Gurwin Techsat 1B 02 Apr 15:38:39 15:43:50 53° 260° (W) 15:49:02 435.225
YUBILEINY 02 Apr 15:47:13 15:54:35 28° 291° (WNW) 16:01:42 435.215
AIST 1 02 Apr 15:53:51 15:58:08 72° 265° (W) 16:02:21
ITAMSAT 1 02 Apr 16:03:59 16:08:12 24° 266° (W) 16:12:17 435.822/435.867
SWISSCUBE 02 Apr 16:12:35 16:16:01 19° 292° (WNW) 16:19:18 437.505
BEESAT 02 Apr 16:14:39 16:18:10 20° 292° (WNW) 16:21:32 436.000
JUGNU 02 Apr 16:16:17 16:19:03 13° 189° (S) 16:21:46 437.505
HORYU 2 02 Apr 16:18:18 16:22:44 87° 257° (WSW) 16:27:13 437.375
PCSat 02 Apr 16:23:19 16:25:57 13° 316° (NW) 16:28:21 145.827
JAS-2 02 Apr 16:43:44 16:50:42 73° 74° (ENE) 16:58:24 435.910
KKS-1 02 Apr 16:45:17 16:49:31 43° 287° (WNW) 16:53:43 437.445
STARS 02 Apr 17:06:30 17:10:38 40° 287° (WNW) 17:14:45 437.465
MOZHAYETS 4 02 Apr 17:17:05 17:20:32 21° 93° (E) 17:24:06
RS-15 02 Apr 17:21:19 17:28:04 20° 103° (ESE) 17:35:33 29.354- 29.394
SRMSAT 02 Apr 17:23:48 17:26:59 15° 186° (S) 17:30:07 437.500
Cubesat XI-IV 02 Apr 17:24:40 17:25:19 10° 62° (ENE) 17:26:20 437.490
AO-7 02 Apr 17:25:58 17:33:58 49° 259° (W) 17:41:55 29.400- 29.500
SO-50 02 Apr 17:39:29 17:43:10 25° 112° (ESE) 17:47:03 436.795
GONETS M04 02 Apr 18:11:44 18:15:56 15° 80° (E) 18:20:45
M-CUBED/EXP-1 PRIME 02 Apr 18:14:36 18:18:24 24° 98° (E) 18:22:10 437.505
BEESAT 2 02 Apr 18:17:12 18:20:19 21° 50° (NE) 18:23:30 435.950
JAS-2 02 Apr 18:31:39 18:36:38 19° 274° (W) 18:41:30 435.910
BEESAT 3 02 Apr 18:48:04 18:52:05 50° 57° (ENE) 18:56:00 437.485
MOZHAYETS 4 02 Apr 18:53:41 18:57:51 32° 288° (WNW) 19:01:56
CUTE-I 02 Apr 18:57:46 19:03:08 84° 76° (ENE) 19:08:32 437.470
Cubesat XI-IV 02 Apr 18:59:22 19:04:45 88° 83° (E) 19:10:09 437.490
CUBESAT XI-V 02 Apr 19:16:47 19:20:48 30° 95° (E) 19:24:52 437.345
SO-50 02 Apr 19:19:23 19:23:34 33° 308° (NW) 19:27:52 436.795
AUBIESAT-1 02 Apr 19:20:00 19:24:49 75° 289° (WNW) 19:29:23 437.475
RS-15 02 Apr 19:28:18 19:39:14 86° 300° (WNW) 19:50:21 29.354- 29.394
PRISM 02 Apr 19:42:36 19:46:32 41° 99° (E) 19:50:27 437.425
M-CUBED/EXP-1 PRIME 02 Apr 19:48:57 19:53:18 34° 294° (WNW) 19:57:28 437.505
BEESAT 2 02 Apr 19:54:51 19:58:33 32° 246° (WSW) 20:02:09 435.950
AIST 2 02 Apr 19:55:54 20:00:10 79° 60° (ENE) 20:04:19 435.215
GONETS M04 02 Apr 20:03:01 20:11:44 89° 278° (W) 20:20:32
HO-68 02 Apr 20:04:15 20:09:33 24° 62° (ENE) 20:15:05 435.675
BRITE-PL 02 Apr 20:09:39 20:12:53 20° 71° (ENE) 20:16:08 437.365/2234.400
STRAND 1 02 Apr 20:18:53 20:23:59 70° 101° (E) 20:29:03 437.568
SEEDS 02 Apr 20:21:47 20:22:30 11° 66° (ENE) 20:23:29 437.485
BEESAT 3 02 Apr 20:28:09 20:29:43 12° 251° (WSW) 20:31:03 437.485
GOMX 1 02 Apr 20:32:05 20:35:23 22° 71° (ENE) 20:38:40 467.674
COMPASS 1 02 Apr 20:35:51 20:37:36 13° 68° (ENE) 20:39:34 437.405
CUBESAT XI-V 02 Apr 20:54:28 20:58:08 23° 290° (WNW) 21:01:40 437.345
Oscar 11 02 Apr 21:06:14 21:07:38 12° 67° (ENE) 21:09:17 145.826/435.025
ISS 02 Apr 21:07:11 21:10:15 39° 134° (SE) 21:13:20 145.825
CANX-2 02 Apr 21:18:24 21:22:36 69° 76° (ENE) 21:26:51 2200.000
DANDE 02 Apr 21:18:33 21:21:28 70° 98° (E) 21:24:05 436.750
PRISM 02 Apr 21:19:25 21:21:42 14° 293° (WNW) 21:23:47 437.425
CUTE 1.7 + AOD 2 02 Apr 21:31:33 21:35:48 89° 63° (ENE) 21:40:05 437.475
DOVE 4 02 Apr 21:34:42 21:38:59 77° 77° (ENE) 21:43:09 437.250
AAUSAT CUBESAT 2 02 Apr 21:37:40 21:41:45 59° 76° (ENE) 21:45:54 437.432
ZACube-1 02 Apr 21:40:27 21:42:28 14° 68° (ENE) 21:44:41 437.345
UWE-3 02 Apr 21:41:55 21:44:41 18° 69° (ENE) 21:47:35 435.000/436.395/437.385
CUSAT 1 02 Apr 21:42:50 21:45:05 23° 283° (WNW) 21:47:14 437.405
RS-15 02 Apr 21:44:43 21:53:32 26° 326° (NW) 22:02:15 29.354- 29.394
BRITE-PL 02 Apr 21:47:11 21:51:20 31° 263° (W) 21:55:12 437.365/2234.400
HO-68 02 Apr 21:49:43 21:56:47 62° 258° (WSW) 22:03:55 435.675
SEEDS 02 Apr 21:53:42 21:57:52 59° 260° (W) 22:02:03 437.485
CUBEBUG 2 02 Apr 21:56:08 21:59:48 32° 72° (ENE) 22:03:33 437.445
STRAND 1 02 Apr 22:00:17 22:02:40 13° 296° (WNW) 22:04:45 437.568
GONETS M04 02 Apr 22:04:46 22:10:04 16° 298° (WNW) 22:14:48
COMPASS 1 02 Apr 22:08:53 22:12:55 47° 261° (W) 22:17:01 437.405
GOMX 1 02 Apr 22:09:41 22:13:27 27° 264° (W) 22:17:03 467.674
UKube-1 02 Apr 22:12:14 22:15:42 25° 70° (ENE) 22:19:16 .
CINEMA 3 02 Apr 22:16:01 22:20:10 70° 259° (W) 22:24:19 145.822/145.860
DELFI C3 02 Apr 22:22:38 22:26:40 69° 77° (ENE) 22:30:45 145.870
DX 1 02 Apr 22:28:21 22:32:24 40° 72° (ENE) 22:36:29 434.975-435.025
Oscar 11 02 Apr 22:39:09 22:43:23 56° 260° (W) 22:47:39 145.826/435.025
ISS 02 Apr 22:44:13 22:46:47 20° 330° (NNW) 22:49:18 145.825
ESTCUBE 1 02 Apr 22:46:25 22:48:37 14° 67° (ENE) 22:51:02 437.505/2401.250
ANTELSAT 02 Apr 22:54:49 22:57:06 14° 91° (E) 22:59:38 437.575/2403.000
FUNcube-1 02 Apr 22:59:33 23:03:39 66° 259° (W) 23:07:48 145.935
CUBEBUG 1 02 Apr 23:14:15 23:17:43 24° 70° (ENE) 23:21:16 437.445
ZACube-1 02 Apr 23:14:35 23:18:31 41° 262° (W) 23:22:29 437.345
50 SAT 02 Apr 23:16:08 23:19:57 57° 76° (ENE) 23:23:50 437.505
UWE-3 02 Apr 23:17:21 23:21:03 30° 264° (W) 23:24:44 435.000/436.395/437.385
HUMSAT D 02 Apr 23:26:19 23:30:23 64° 259° (W) 23:34:29 437.325/437.525
PCSat 02 Apr 23:26:58 23:32:05 41° 57° (ENE) 23:37:12 145.827
VELOX 1 02 Apr 23:27:35 23:32:01 80° 78° (ENE) 23:36:28 145.980
DUCHIFAT 1 02 Apr 23:28:39 23:30:48 14° 91° (E) 23:33:10 145.980
QB50P1 02 Apr 23:29:33 23:31:54 15° 92° (E) 23:34:27 145.935-145.965
CUBEBUG 2 02 Apr 23:33:55 23:36:40 17° 268° (W) 23:39:16 437.445
AISAT 02 Apr 23:34:27 23:38:54 83° 257° (WSW) 23:43:21 437.250
QB50P2 02 Apr 23:45:18 23:48:42 24° 95° (E) 23:52:12 145.880/145.840
BUGSAT 1 02 Apr 23:46:39 23:49:01 15° 93° (E) 23:51:32 437.445
UKube-1 02 Apr 23:48:11 23:51:48 25° 264° (W) 23:55:20 .
UNISAT 6 02 Apr 23:48:47 23:53:22 56° 100° (E) 23:57:59 437.425
TIGRISAT 02 Apr 23:56:39 00:01:16 67° 101° (E) 00:05:57 435.000
YUBILEINY 03 Apr 00:03:01 00:09:44 25° 68° (ENE) 00:16:45 435.215
DX 1 03 Apr 00:06:12 00:08:52 15° 268° (W) 00:11:21 434.975-435.025
RS-15 03 Apr 00:06:48 00:11:43 13° 1° (N) 00:16:44 29.354- 29.394
TISAT 1 03 Apr 00:11:47 00:14:54 21° 70° (ENE) 00:18:08 437.305
POPSAT HIP 1 03 Apr 00:12:23 00:16:30 49° 99° (E) 00:20:38 437.405
ESTCUBE 1 03 Apr 00:20:40 00:25:06 52° 260° (W) 00:29:33 437.505/2401.250
NANOSAT C BR1 03 Apr 00:20:49 00:25:01 63° 101° (E) 00:29:13 145.865
POLYITAN 1 03 Apr 00:29:34 00:33:50 83° 102° (ESE) 00:38:07 437.675
ANTELSAT 03 Apr 00:29:42 00:34:13 51° 285° (WNW) 00:38:45 437.575/2403.000
SPROUT 03 Apr 00:39:17 00:43:26 53° 75° (ENE) 00:47:37 437.525
CUBEBUG 1 03 Apr 00:50:15 00:54:00 26° 265° (W) 00:57:40 437.445
ITUPSAT 1 03 Apr 00:56:02 00:57:09 11° 64° (ENE) 00:58:35 437.325
DUCHIFAT 1 03 Apr 01:02:54 01:06:52 40° 287° (WNW) 01:10:49 145.980
QB50P1 03 Apr 01:04:02 01:07:59 38° 287° (WNW) 01:11:55 145.935-145.965
PCSat 03 Apr 01:10:59 01:15:17 24° 252° (WSW) 01:19:25 145.827
BUGSAT 1 03 Apr 01:20:59 01:24:38 33° 287° (WNW) 01:28:15 437.445
QB50P2 03 Apr 01:21:04 01:24:34 25° 289° (WNW) 01:27:59 145.880/145.840
UNISAT 6 03 Apr 01:27:22 01:29:45 14° 293° (WNW) 01:31:55 437.425
TIGRISAT 03 Apr 01:35:56 01:37:33 11° 294° (WNW) 01:38:55 435.000
SWISSCUBE 03 Apr 01:38:06 01:42:23 34° 71° (ENE) 01:46:45 437.505
BEESAT 03 Apr 01:40:13 01:44:26 33° 71° (ENE) 01:48:46 436.000
TISAT 1 03 Apr 01:46:57 01:50:35 27° 264° (W) 01:54:09 437.305
POPSAT HIP 1 03 Apr 01:50:04 01:52:02 13° 293° (WNW) 01:53:47 437.405
NANOSAT C BR1 03 Apr 02:00:01 02:00:24 10° 294° (WNW) 02:00:33 145.865
